Showing default

ARC-1, 40969

Orbit data source: Space-Track

ARC-1, 40969 is a payload satellite owned by Alaska (US) in LEO that was launched on Thu, 08 Oct 2015 UTC via an ATLAS V 401 launch vehicle from the Air Force Western Test Range (AFWTR). Payload-class satellites include a variety of spacecraft equipped with specific instruments for various scientific and technological missions. These include communications satellites like Starlink; space stations such as the ISS; scientific satellites like the Hubble; Earth observation satellites from companies like Planet Labs, Umbra, and HawkEye 360; GPS; miniature CubeSats for education and research; and military/defense satellites.

Loading next visibility...
Identifier
40969, 2015-058F
Orbit
LEO
Country
Flag of USUS
Related business
Manufacturer
Alaska
Mission
Non-operational Amateur Technology
Bus & Motor
CUBESAT 1U, Unknown motor
Mass
1 kg wet, 1 kg dry
Launch date (UTC)
2015-10-08 (10 years ago)
Launch vehicle
ATLAS V 401
Launch site
Air Force Western Test Range (AFWTR)
Object type
Payload
Rocket body
Debris
Shape & HBR
Box, 0.1 m
Radar Cross Section
0.015 m², Medium (>0.1 m² and < 1m²)

Expand to show TLE details & history
Last TLE update: 1 day ago

TLE from 1 day ago
0 ARC-1
1 40969U 15058F   25287.17263818  .00035591  00000-0  13051-2 0  9992
2 40969  64.7692 218.3579 0058252 146.7811 213.6998 15.26194808 79210
Epoch: 2025-10-14T04:08Z
TLE epoch observation values (Epoch: 2025-10-14T04:08:35.938Z)
Latitude
-0.00003°
Longitude
133.24327°
Altitude
522.585 km
Speed
7.584 km/s
True Right ascension
14h 33m 25s
True Declination
0° 00' 00"
Sunlit
Object was in daylight at epoch
Visualization orbit readout
Latitude
Unknown
Longitude
Unknown
Altitude
Unknown
Speed
Unknown
Apparent Right ascension
Unknown
Apparent Declination
Unknown
Sunlit
N/A
Visualization observer readout
Local Sidereal Time
10:00:16
Azimuth
Unknown
Elevation
Unknown
Doppler factor
Unknown
Orbital elements
Apogee altitude
525.729 km
Perigee altitude
445.762 km
Semi-major axis
6,863.882 km
Eccentricity
0.00583
Inclination
64.7692°
RAAN
218.3579°
Arg. of periapsis
146.7811°
True anomaly
213.33167°
Mean anomaly
213.6998°
Eccentric anomaly
213.51551°
Mean motion
3.8167 °/min
Orbital period
94.32 mins
BSTAR
0.0013051
Loading maneuver chart data...
Computing Atmospheric mass density...
Loading historical data...
Loading historical data...
Loading historical data...
Loading historical data...
Loading historical data...
Loading historical data...
Loading historical data...

Documentation

Showing up to 5 results
|